Total_Precipitation_Accumulation
2.00 2.00 1.95 1.93 1.83 1.91 2.08 2.27 2.31 2.66 2.77 2.40 2.02 1.89 1.88 1.95 1.86 1.84 1.75 1.67 1.61 1.74 2.11 2.35 2.20 1.96 1.65 1.41 1.27 1.16 1.04 0.90 0.81 0.71 0.72 0.80 0.80 0.74 0.67 0.61 0.55 0.48 0.42
2.12 2.23 2.10 2.07 1.94 1.90 2.05 2.24 2.41 2.89 2.92 2.73 2.30 2.06 1.98 1.94 1.77 1.71 1.78 1.95 1.78 1.67 1.80 2.09 2.30 2.27 2.11 1.85 1.58 1.37 1.21 1.10 0.95 0.74 0.63 0.69 0.73 0.71 0.70 0.68 0.63 0.52 0.44
2.13 2.14 1.98 1.88 1.92 2.06 2.23 2.26 2.41 2.72 2.49 2.46 2.26 2.11 1.90 1.71 1.54 1.48 1.65 1.83 1.71 1.65 1.78 1.93 2.12 2.21 2.31 2.32 2.17 1.99 1.63 1.36 1.16 0.92 0.73 0.68 0.70 0.66 0.65 0.67 0.66 0.59 0.47
2.03 2.18 1.99 1.83 2.13 2.19 2.28 2.50 2.64 2.66 2.61 2.61 2.38 2.06 1.82 1.69 1.37 1.27 1.29 1.39 1.58 1.39 1.64 1.87 1.92 1.98 2.22 2.49 2.69 2.73 2.35 1.88 1.55 1.29 1.04 0.88 0.87 0.80 0.67 0.62 0.65 0.58 0.45
2.10 2.35 2.31 2.39 2.47 2.50 2.51 2.39 2.68 2.71 2.61 2.60 2.30 2.03 1.66 1.47 1.28 1.13 1.07 1.03 1.17 1.25 1.34 1.47 1.62 1.71 2.08 2.64 2.97 3.12 3.03 2.61 2.07 1.77 1.58 1.40 1.30 1.07 0.82 0.70 0.70 0.67 0.54
2.21 2.55 2.39 2.39 2.49 2.62 2.65 2.57 2.58 2.60 2.35 2.32 2.14 1.90 1.52 1.19 1.10 1.02 0.89 0.86 0.90 0.86 1.03 1.26 1.49 1.33 1.68 2.22 2.61 3.01 3.31 3.16 2.58 2.22 2.08 1.96 1.84 1.54 1.07 0.84 0.79 0.76 0.70
2.20 2.52 2.40 2.53 2.51 2.52 2.53 2.54 2.55 2.40 2.03 2.23 2.32 1.89 1.41 1.09 1.07 0.85 0.76 0.79 0.80 0.79 0.98 1.26 1.43 1.42 1.35 1.43 1.75 2.18 2.76 3.05 2.82 2.48 2.32 2.20 2.21 2.01 1.47 1.14 0.99 0.85 0.84
2.36 2.36 2.45 2.42 2.46 2.55 2.47 2.41 2.46 2.28 1.91 2.05 2.23 2.28 1.69 1.30 1.00 0.71 0.77 0.87 0.95 1.02 1.05 1.15 1.30 1.42 1.41 1.63 1.50 1.44 1.93 2.58 2.98 2.91 2.63 2.22 2.01 1.91 1.70 1.55 1.33 1.13 1.08
2.52 2.49 2.44 2.34 2.27 2.15 2.13 2.19 2.21 2.19 2.02 1.93 2.11 2.39 1.97 1.50 1.24 0.87 0.81 0.88 1.08 1.28 1.25 1.27 1.27 1.41 1.54 1.81 1.93 1.65 1.49 1.81 2.50 3.12 3.13 2.59 2.04 1.76 1.70 1.70 1.67 1.50 1.37
2.38 2.14 2.00 2.05 2.04 1.94 1.90 1.70 1.75 1.87 1.81 1.67 1.81 1.90 1.93 1.95 1.86 1.26 0.90 0.84 1.01 1.17 1.29 1.20 1.18 1.32 1.52 1.72 1.95 1.83 1.46 1.36 1.68 2.49 2.97 2.83 2.39 1.92 1.70 1.74 2.02 2.00 1.66
2.07 1.77 1.67 1.75 1.76 1.69 1.60 1.52 1.61 1.54 1.47 1.45 1.61 1.78 1.85 1.92 1.90 1.76 1.36 1.25 1.21 1.07 1.09 1.13 1.25 1.33 1.38 1.64 1.94 1.77 1.68 1.53 1.43 1.57 1.95 2.27 2.38 2.19 2.05 2.21 2.55 2.72 2.48
1.74 1.49 1.38 1.49 1.59 1.62 1.58 1.53 1.57 1.45 1.44 1.53 1.52 1.59 1.78 1.76 1.78 1.89 1.62 1.47 1.38 1.11 1.09 1.19 1.24 1.40 1.46 1.60 1.62 1.74 1.66 1.42 1.30 1.26 1.35 1.61 1.89 2.00 2.07 2.27 2.70 3.09 3.19
1.46 1.38 1.39 1.46 1.51 1.58 1.49 1.51 1.51 1.53 1.62 1.65 1.57 1.54 1.62 1.63 1.70 1.87 1.84 1.67 1.57 1.39 1.41 1.40 1.27 1.27 1.24 1.38 1.45 1.44 1.28 1.18 1.05 0.99 1.01 1.09 1.22 1.45 1.69 1.96 2.38 2.80 3.09
1.53 1.55 1.52 1.42 1.39 1.45 1.38 1.57 1.50 1.53 1.65 1.65 1.48 1.65 1.67 1.67 1.86 2.04 2.13 2.15 1.94 1.71 1.67 1.68 1.58 1.41 1.33 1.32 1.34 1.29 1.12 1.04 0.87 0.81 0.82 0.84 0.90 1.03 1.25 1.47 1.75 2.05 2.31
1.63 1.73 1.69 1.59 1.48 1.51 1.61 1.83 1.81 1.81 1.94 1.88 1.83 1.95 1.89 1.82 1.89 1.97 2.10 2.21 2.30 2.08 1.92 1.88 1.74 1.47 1.36 1.34 1.30 1.17 1.22 1.11 0.90 0.81 0.75 0.71 0.74 0.83 0.89 0.98 1.14 1.34 1.55
1.53 1.69 1.79 1.74 1.65 1.66 1.80 1.95 1.97 2.09 2.19 2.17 2.20 2.26 2.17 2.02 2.05 2.09 2.07 2.21 2.41 2.36 2.06 1.74 1.58 1.40 1.34 1.21 1.27 1.16 1.16 1.10 0.95 0.85 0.74 0.69 0.68 0.71 0.71 0.75 0.85 0.97 1.14
1.50 1.57 1.70 1.77 1.72 1.72 1.82 1.88 1.87 2.09 2.19 2.19 2.16 2.15 2.07 2.12 2.13 2.03 2.08 2.20 2.37 2.41 2.11 1.73 1.67 1.65 1.61 1.49 1.44 1.34 1.22 1.17 1.01 0.92 0.81 0.75 0.71 0.71 0.72 0.73 0.76 0.80 0.88
1.56 1.59 1.68 1.70 1.62 1.63 1.77 1.80 1.86 2.04 2.12 2.04 1.98 1.97 1.80 1.83 1.87 1.77 1.87 1.95 2.03 2.21 2.16 1.93 1.91 1.92 1.89 1.77 1.70 1.64 1.47 1.27 1.06 1.00 0.87 0.80 0.77 0.73 0.71 0.72 0.75 0.80 0.85
1.55 1.60 1.61 1.62 1.65 1.75 1.81 1.78 1.75 1.72 1.69 1.74 1.90 1.98 1.78 1.75 1.68 1.68 1.71 1.70 1.75 1.88 2.01 1.94 1.92 1.99 1.96 1.93 1.83 1.65 1.54 1.41 1.14 1.06 1.01 0.91 0.84 0.78 0.74 0.73 0.75 0.81 0.88
1.44 1.53 1.60 1.67 1.73 1.77 1.77 1.78 1.78 1.69 1.60 1.60 1.69 1.72 1.67 1.67 1.63 1.71 1.67 1.66 1.67 1.77 1.89 1.91 1.91 2.03 2.05 1.97 1.96 1.80 1.78 1.65 1.47 1.23 1.14 1.02 1.00 0.97 0.91 0.83 0.78 0.80 0.92
1.49 1.57 1.63 1.65 1.62 1.60 1.50 1.48 1.50 1.46 1.50 1.45 1.38 1.37 1.39 1.47 1.48 1.48 1.38 1.50 1.65 1.72 1.76 1.79 1.82 1.98 2.16 2.20 2.02 1.92 1.98 1.92 1.76 1.50 1.39 1.21 1.11 1.04 1.00 0.96 0.92 0.88 0.90
1.53 1.58 1.56 1.61 1.58 1.33 1.42 1.42 1.41 1.54 1.62 1.60 1.50 1.41 1.34 1.29 1.22 1.18 1.15 1.22 1.42 1.55 1.60 1.68 1.69 1.81 2.02 2.23 2.28 2.22 2.12 2.05 2.02 1.88 1.80 1.67 1.44 1.33 1.23 1.13 1.09 1.04 0.98
1.65 1.62 1.57 1.56 1.58 1.62 1.62 1.46 1.33 1.33 1.43 1.47 1.45 1.43 1.27 1.16 1.24 1.19 1.18 1.15 1.17 1.26 1.34 1.47 1.57 1.61 1.77 2.00 2.23 2.19 2.26 2.30 2.28 2.26 2.27 2.21 1.91 1.69 1.47 1.30 1.14 0.92 0.84
1.83 1.80 1.73 1.66 1.67 1.66 1.58 1.39 1.34 1.29 1.35 1.38 1.40 1.41 1.38 1.28 1.29 1.37 1.36 1.30 1.20 1.15 1.19 1.21 1.28 1.41 1.62 1.89 2.15 2.13 2.14 2.23 2.29 2.30 2.35 2.37 2.13 1.93 1.69 1.49 1.34 1.07 0.90
1.90 1.86 1.83 1.86 1.82 1.84 1.85 1.64 1.59 1.47 1.52 1.54 1.54 1.51 1.47 1.38 1.45 1.38 1.32 1.31 1.25 1.22 1.22 1.24 1.22 1.34 1.55 1.66 1.83 1.92 1.92 1.98 1.93 1.87 2.00 2.19 2.19 2.10 1.94 1.67 1.41 1.20 0.96
1.97 2.02 2.03 2.03 2.03 2.08 2.24 2.00 1.81 1.66 1.71 1.73 1.80 1.74 1.67 1.52 1.51 1.41 1.28 1.31 1.28 1.28 1.34 1.31 1.25 1.25 1.29 1.46 1.63 1.68 1.82 1.95 1.86 1.73 1.53 1.63 1.81 1.98 2.11 1.93 1.67 1.45 1.29